Flag for USA Past Weather in Avalon (Santa Catalina Island), California, USA — Yesterday and Last 2 Weeks

Now
56 °F

Fog.


Feels Like: 53 °F
Forecast: 58 / 63 °F
Wind: 12 mph from Northwest

Location: Catalina Airport

Current Time: Dec 9, 2016 at 5:09:06 pm

Latest Report: Dec 9, 2016 at 3:51 pm


Visibility: 0 mi

Pressure: 30.16 "Hg

Humidity: 100%

Dew Point: 56 °F

Location of Avalon (Santa Catalina Island)Location

Past Weather in Avalon (Santa Catalina Island) — Graph

°F

Avalon (Santa Catalina Island) Temperature Yesterday

Maximum temperature yesterday: 58 °F (at 11:51 am)
Minimum temperature yesterday: 50 °F (at 3:51 am)
Average temperature yesterday: 53 °F

High & Low Weather Summary for the Past Weeks

 TemperatureHumidityPressure
High70 °F (Nov 24, 3:51 pm)100% (Nov 26, 6:51 am)30.27 "Hg (Nov 26, 6:51 am)
Low49 °F (Nov 26, 6:00 pm)10% (Nov 26, 12:51 am)29.83 "Hg (Nov 28, 4:51 pm)
Average55 °F65%30.03 "Hg
* Reported Nov 24 3:51 pm — Dec 9 3:51 pm, Avalon (Santa Catalina Island), Weather by CustomWeather, © 2016

Note: Actual official high and low records may vary slightly from our data, if they occured in-between our weather recording intervals... More about our weather records

Advertising

Avalon (Santa Catalina Island) Weather History for the Previous 24 Hours

Scroll right to see more
 ConditionsComfort  
Time TempWeatherWind HumidityBarometerVisibility
3:51 pm
Fri, Dec 9
56 °FFog.12 mph100%30.16 "Hg0 mi
2:51 pm57 °FFog.9 mph100%30.18 "Hg0 mi
1:51 pm57 °FFog.12 mph100%30.19 "Hg0 mi
12:51 pm57 °FFog.10 mph100%30.21 "Hg0 mi
11:51 am58 °FFog.13 mph100%30.24 "Hg0 mi
10:51 am57 °FFog.12 mph100%30.25 "Hg0 mi
9:51 am56 °FFog.10 mph100%30.27 "Hg0 mi
8:51 am55 °FFog.10 mph100%30.27 "Hg0 mi
7:51 am55 °FFog.10 mph100%30.25 "Hg0 mi
6:51 am54 °FFog.10 mph100%30.24 "Hg0 mi
5:51 am54 °FFog.14 mph100%30.24 "Hg0 mi
4:51 am54 °FFog.13 mph100%30.24 "Hg0 mi
3:51 am55 °FFog.8 mph100%30.24 "Hg0 mi
2:51 am54 °FFog.9 mph100%30.25 "Hg0 mi
1:51 am54 °FFog.12 mph100%30.26 "Hg0 mi
12:51 am54 °FFog.9 mph100%30.25 "Hg0 mi
11:51 pm
Thu, Dec 8
54 °FFog.13 mph100%30.25 "Hg0 mi
10:51 pm53 °FFog.8 mph100%30.26 "Hg0 mi
9:51 pm53 °FFog.9 mph100%30.26 "Hg0 mi
8:51 pm53 °FFog.8 mph100%30.26 "Hg0 mi
8:04 pm52 °FFog.8 mph97%30.26 "Hg4 mi
7:51 pm52 °FPassing clouds.8 mph97%30.25 "Hg10 mi
6:51 pm52 °FPassing clouds.9 mph97%30.24 "Hg10 mi
5:51 pm52 °FPassing clouds.7 mph97%30.24 "Hg10 mi
Weather by CustomWeather, © 2016

See weather overviewHow to use our weather pages